Tracking 31023 objects as of 19-Jul-2025
HD Live streaming from Space Station
objects crossing your sky now

STARLINK-32728

Track STARLINK-32728 now!
10-day predictions
STARLINK-32728 is classified as:


NORAD ID: 62948
Int'l Code: 2025-029A
Perigee: 481.3 km
Apogee: 483.4 km
Inclination: 53.2 °
Period: 94.1 minutes
Semi major axis: 6853 km
RCS: Unknown
Launch date: February 11, 2025
Source: United States (US)
Launch site: AIR FORCE WESTERN TEST RANGE (AFWTR)
Your satellite tracking list
Your tracking list is empty




NASA's NSSDC Master Catalog

Two Line Element Set (TLE):
1 62948U 25029A   25200.07815753  .00017703  00000-0  60834-3 0  9994
2 62948  53.1583 235.2204 0001590  66.4301 293.6867 15.30202714 25271
Source of the keplerian elements: AFSPC